This is the latest recevied weather packets stored in our database for station/object 5B4ALR-13. If no packets are shown the sender has not sent any weather packets the latest 10 day(s).
| Time | Temp. | Humidity | Pressure | Rain* | Wind** | Luminosity | Snow |
|---|---|---|---|---|---|---|---|
| 1777703472 | 21.67° C | 67% | 1012.7 hPa | 0 mm | - | - | - |
| 1777702867 | 21.67° C | 67% | 1012.7 hPa | 0 mm | - | - | - |
| 1777702272 | 21.11° C | 66% | 1012.6 hPa | 0 mm | - | - | - |
| 1777701665 | 21.67° C | 67% | 1012.7 hPa | 0 mm | - | - | - |
| 1777701069 | 21.67° C | 69% | 1012.6 hPa | 0 mm | - | - | - |
| 1777700470 | 20.56° C | 71% | 1012.5 hPa | 0 mm | - | - | - |
| 1777699867 | 20° C | 75% | 1012.5 hPa | 0 mm | - | - | - |
| 1777699266 | 20° C | 74% | 1012.3 hPa | 0 mm | - | - | - |
| 1777698664 | 20° C | 74% | 1012.1 hPa | 0 mm | - | - | - |
| 1777698066 | 20° C | 74% | 1012.1 hPa | 0 mm | - | - | - |
| 1777697464 | 20° C | 74% | 1011.9 hPa | 0 mm | - | - | - |
| 1777696866 | 20° C | 72% | 1011.9 hPa | 0 mm | - | - | - |
| 1777696265 | 21.11° C | 70% | 1011.6 hPa | 0 mm | - | - | - |
| 1777695666 | 21.11° C | 75% | 1011.5 hPa | 0 mm | - | - | - |
| 1777695064 | 20.56° C | 77% | 1011.2 hPa | 0 mm | - | - | - |
| 1777694467 | 20° C | 81% | 1011.3 hPa | 0 mm | - | - | - |
| 1777693864 | 19.44° C | 81% | 1011.3 hPa | 0 mm | - | - | - |
| 1777693264 | 17.78° C | 81% | 1011.4 hPa | 0 mm | - | - | - |
| 1777692665 | 17.78° C | 80% | 1011.5 hPa | 0 mm | - | - | - |
| 1777692064 | 17.22° C | 79% | 1011.4 hPa | 0 mm | - | - | - |
| 1777691464 | 17.22° C | 79% | 1011.3 hPa | 0 mm | - | - | - |
| 1777690864 | 16.67° C | 79% | 1011.2 hPa | 0 mm | - | - | - |
| 1777690264 | 16.67° C | 79% | 1011.2 hPa | 0 mm | - | - | - |
| 1777689664 | 17.22° C | 78% | 1011.3 hPa | 0 mm | - | - | - |
| 1777689064 | 17.22° C | 78% | 1011.3 hPa | 0 mm | - | - | - |
* Rain latest hour (hover to see other rain measurements)
** Current wind speed in m/s (hover to see current wind gust speed)